Location: Sternwarte_Laufen
(47.9344°N, 12.9346°E)
Time: 08:41:33
(UTC+02:00)

Envisat - Visible Passes

Search period start: 21 June 2018 00:00
Search period end: 01 July 2018 00:00
Orbit: 764 x 766 km, 98.2° (Epoch: 20 June)

Date Brightness Start Highest point End Pass type
(mag) Time Alt. Az. Time Alt. Az. Time Alt. Az.
21 Jun 5.6 21:46:49 10° SW 21:49:47 16° W 21:52:48 10° NW visible
26 Jun 5.9 22:02:56 10° WSW 22:04:25 11° W 22:05:56 10° WNW visible
29 Jun 5.7 21:50:26 10° WSW 21:53:06 14° W 21:55:47 10° NW visible
